[[{"header":{"parameterUnit":"m.s-1","parameterCategory":1,"la1":30.2991,"la2":30.254,"lo1":-89.0895,"lo2":-89.0444,"dy":0.0017,"dx":0.0017,"nx":28,"ny":28,"refTime":"2025-11-25T03:00:00:Z","depth":0,"parameterNumber":2,"parameterNumberName":"U-component_of_WINDS"},"data":[0,0,0,0,0,0,0,0,0,0,0,0,0,0,0,0,0,0,0,0,0,0,0,0,0,0,0,0,0,0,0,0,0,0,0,0,0,0,0,0,0,0,0,0,0,0,0,0,0,0,0,0,0,0,0,0,0,0,2.3161,2.3162,0,2.3248,2.3249,2.325,2.3228,2.3227,2.3225,2.3223,2.3317,2.3321,2.3325,0,0,0,0,0,0,0,0,0,0,0,0,0,2.2978,2.2982,2.3161,2.3162,2.3163,2.3248,2.3249,2.3251,2.3229,2.3227,2.3225,2.3223,2.3316,2.332,2.3325,0,0,0,0,0,0,0,0,0,0,0,0,0,2.3061,2.2983,2.3161,2.3162,2.3163,2.3248,2.3249,2.3251,2.3229,2.3227,2.3224,2.3222,2.3314,2.332,2.3326,2.3415,0,0,2.3345,2.3347,0,0,0,0,0,0,0,0,2.3056,2.3068,2.3161,2.3162,2.3164,2.3225,2.3219,2.3306,2.323,2.3204,2.3223,2.322,2.3289,2.3297,2.3319,2.342,2.3424,2.3345,2.3349,2.3352,2.3353,0,0,0,0,0,0,0,2.305,2.3064,2.3196,2.3163,2.3164,2.316,2.3169,2.3236,2.326,2.3206,2.3205,2.3215,2.3289,2.3313,2.3321,2.3425,2.3345,2.3351,2.3354,2.3357,2.3603,2.3606,0,0,0,0,0,0,2.3043,2.3059,2.3193,2.3198,2.3102,2.3165,2.3175,2.3208,2.3259,2.3264,2.3218,2.3214,2.3304,2.3314,2.3324,2.3431,2.3352,2.3357,2.3361,2.36,2.3603,2.3607,0,0,0,0,0,0,2.3039,2.3055,2.3189,2.3128,2.3145,2.3171,2.3208,2.3211,2.3235,2.3268,2.3272,2.3237,2.3302,2.3315,2.3392,2.3434,2.336,2.3366,2.3597,2.3601,2.3605,2.3647,0,0,0,0,0,0,2.3034,2.3054,2.3088,2.3129,2.3148,2.3255,2.3211,2.3215,2.3245,2.3241,2.3287,2.3293,2.3301,2.3383,2.3398,2.3441,2.337,2.3593,2.3599,2.3604,2.3642,2.3652,2.3661,0,0,0,0,0,2.3028,2.3097,2.309,2.3106,2.3191,2.3258,2.3269,2.3276,2.3249,2.3283,2.3304,2.3291,2.3427,2.3391,2.3408,2.3454,2.359,2.3597,2.3603,2.3638,2.365,2.3661,0,0,0,0,0,0,2.3062,2.3103,2.3095,2.318,2.3215,2.3254,2.3298,2.3289,2.3335,2.3329,2.3337,2.3348,2.3426,2.3448,2.3407,2.3542,2.3505,2.3515,2.3526,2.3538,2.3547,2.354,2.3376,0,0,0,0,0,2.3079,2.3129,2.3163,2.3234,2.3252,2.3272,2.3302,2.3304,2.3341,2.3357,2.3383,2.3421,2.3472,2.3506,2.3555,2.3645,2.3655,2.3685,2.3694,2.3702,2.371,2.3759,2.3772,2.3628,2.3628,2.3627,0,0,2.3116,2.3144,2.3176,2.3242,2.327,2.3322,2.3285,2.3342,2.3381,2.3366,2.344,2.346,2.3503,2.3587,2.3625,2.3607,2.3752,2.371,2.3716,2.372,2.3767,2.378,2.3792,2.3632,2.3631,2.3631,0,0,2.3209,2.3236,2.3298,2.3326,2.3368,2.338,2.3395,2.3435,2.3447,2.3521,2.351,2.3557,2.3645,2.3676,2.3703,2.3806,2.3796,2.3822,2.3872,2.3919,2.393,2.394,2.3977,2.399,2.3831,2.3831,2.3831,0,2.325,2.3327,2.3331,2.3389,2.3418,2.3405,2.3468,2.3495,2.3552,2.3573,2.3552,2.3661,2.3689,2.3779,2.3804,2.3826,2.3844,2.3817,2.3928,2.3938,2.3948,2.3982,2.3996,2.3834,2.3833,2.3833,2.3833,0,2.3374,2.3428,2.3473,2.3526,2.3561,2.3621,2.3635,2.3669,2.3668,2.3683,2.3758,2.379,2.3845,2.3867,2.3867,2.3957,2.3944,2.3925,2.3888,2.3964,2.3997,2.401,2.3838,2.3837,2.3836,2.3835,0,0,2.3493,2.3545,2.3562,2.3585,2.363,2.3672,2.3732,2.3783,2.3813,2.3852,2.3902,2.3976,2.3958,2.3989,2.3993,2.4034,2.4112,2.401,2.4011,2.4028,2.4213,2.4226,2.4241,2.4106,2.4108,2.4111,2.4209,0,2.3589,2.3693,2.3698,2.3792,2.3841,2.3829,2.3881,2.3914,2.3929,2.3974,2.3991,2.4043,2.4016,2.4034,2.4074,2.4094,2.415,2.4087,2.4153,2.4156,2.4143,2.4259,2.4274,2.4365,2.4222,2.4224,2.4225,0,2.3716,2.3757,2.3856,2.3892,2.3913,2.3959,2.4007,2.405,2.4087,2.4095,2.4128,2.4126,2.4187,2.4147,2.4232,2.4189,2.4216,2.423,2.4234,2.424,2.4195,2.4268,2.4394,2.4407,2.4246,2.4244,2.4243,0,2.3792,2.3872,2.3941,2.3961,2.4006,2.4038,2.4059,2.4093,2.4124,2.4165,2.4185,2.4234,2.4261,2.43,2.431,2.428,2.4395,2.4355,2.4403,2.4403,2.4428,2.4427,2.456,2.4446,2.4446,2.4446,2.4445,0,2.3899,2.396,2.3975,2.4018,2.4086,2.4091,2.4158,2.4176,2.4207,2.4253,2.4246,2.4289,2.4301,2.4347,2.4356,2.4424,2.4436,2.4445,2.4447,2.4446,2.4444,2.4464,2.4457,2.4449,2.4448,2.4448,2.4447,0,2.3996,2.4008,2.4082,2.4117,2.4128,2.4176,2.4206,2.4247,2.4261,2.4319,2.4333,2.4355,2.4408,2.4422,2.4487,2.4493,2.4573,2.4569,2.456,2.456,2.4607,2.4602,2.4757,2.4778,2.4651,2.4652,2.4653,0,2.4063,2.4109,2.4149,2.4178,2.4199,2.4248,2.4278,2.4285,2.4317,2.4362,2.4398,2.445,2.4492,2.4579,2.4601,2.465,2.4647,2.4698,2.4654,2.4651,2.4647,2.4644,2.4648,2.4706,2.4707,2.4708,2.4709,0,2.4182,2.4185,2.4229,2.4274,2.4311,2.4347,2.4382,2.4407,2.4419,2.4456,2.4509,2.4542,2.4607,2.4659,2.4708,2.473,2.4722,2.4723,2.4736,2.4736,2.4728,2.4732,2.4583,2.4719,2.4718,2.4718,2.4717,2.4717,2.4266,2.4305,2.4339,2.4387,2.4414,2.4447,2.4486,2.4504,2.4548,2.4601,2.4602,2.4661,2.4696,2.4761,2.4785,2.4832,2.4816,2.4836,2.4841,2.4846,2.4849,2.4721,2.4841,2.484,2.484,2.484,2.484,0,2.4383,2.4403,2.4448,2.4496,2.4534,2.4522,2.456,2.4593,2.4644,2.4677,2.4718,2.4779,2.4829,2.4854,2.4904,2.4936,2.4934,2.4949,2.4947,2.4952,2.4861,2.4844,2.495,2.495,2.495,2.495,2.495,2.495,2.4449,2.4515,2.4523,2.4602,2.4622,2.4678,2.4701,2.4731,2.4757,2.4825,2.4866,2.4882,2.4912,2.4963,2.5009,2.5015,2.5034,2.5051,2.5055,2.497,2.4958,2.4948,2.4932,2.5055,2.5055,2.5142,2.5143,2.5144]},{"header":{"parameterUnit":"m.s-1","parameterCategory":1,"la1":30.2991,"la2":30.254,"lo1":-89.0895,"lo2":-89.0444,"dy":0.0017,"dx":0.0017,"nx":28,"ny":28,"refTime":"2025-11-25T03:00:00:Z","depth":0,"parameterNumber":3,"parameterNumberName":"V-component_of_WINDS"},"data":[0,0,0,0,0,0,0,0,0,0,0,0,0,0,0,0,0,0,0,0,0,0,0,0,0,0,0,0,0,0,0,0,0,0,0,0,0,0,0,0,0,0,0,0,0,0,0,0,0,0,0,0,0,0,0,0,0,0,2.9301,2.9303,0,2.9482,2.9484,2.9486,2.9503,2.9501,2.9499,2.9497,2.9689,2.9696,2.9703,0,0,0,0,0,0,0,0,0,0,0,0,0,2.8975,2.8981,2.9301,2.9303,2.9305,2.9482,2.9484,2.9487,2.9503,2.9501,2.9499,2.9497,2.9687,2.9695,2.9703,0,0,0,0,0,0,0,0,0,0,0,0,0,2.9132,2.8982,2.93,2.9335,2.934,2.9481,2.9484,2.9487,2.9504,2.9501,2.9498,2.9495,2.9684,2.9694,2.9705,2.9826,0,0,2.9736,2.9741,0,0,0,0,0,0,0,0,2.9123,2.9144,2.9327,2.9333,2.9338,2.9467,2.944,2.9601,2.9505,2.9442,2.9497,2.9494,2.9618,2.9634,2.9674,2.9835,2.9844,2.9737,2.9743,2.9748,2.9751,0,0,0,0,0,0,0,2.9112,2.9137,2.9373,2.933,2.9337,2.9343,2.9362,2.947,2.9544,2.9447,2.9449,2.9469,2.9621,2.9664,2.9679,2.9846,2.9737,2.9746,2.9752,2.9757,3.0116,3.012,0,0,0,0,0,0,2.9094,2.9127,2.9367,2.9378,2.9221,2.9351,2.9373,2.9429,2.9543,2.9557,2.9472,2.947,2.9648,2.9667,2.9686,2.9835,2.9748,2.9758,2.9763,3.0113,3.0117,3.0121,0,0,0,0,0,0,2.9087,2.9115,2.936,2.9253,2.9285,2.936,2.9423,2.9434,2.9477,2.9562,2.9575,2.9502,2.9646,2.9671,2.9791,2.9842,2.9762,2.9772,3.0109,3.0114,3.0119,3.0136,0,0,0,0,0,0,2.9078,2.9113,2.9159,2.9254,2.929,2.946,2.9426,2.9439,2.9494,2.9493,2.9594,2.9608,2.9646,2.9775,2.9801,2.9855,2.978,3.0105,3.0111,3.0117,3.0131,3.0141,3.0149,0,0,0,0,0,2.9066,2.9158,2.9161,2.919,2.9349,2.9463,2.9484,2.9524,2.9498,2.9546,2.96,2.9605,2.9832,2.9787,2.9817,2.9875,3.0102,3.011,3.0117,3.0127,3.0139,3.0149,0,0,0,0,0,0,2.9069,2.9171,2.9175,2.93,2.9372,2.9465,2.9527,2.9535,2.9618,2.9614,2.9662,2.9685,2.9802,2.9851,2.9799,2.9998,2.9965,2.9978,2.9962,2.9974,2.9983,2.9969,2.9788,0,0,0,0,0,2.9083,2.9166,2.9251,2.9353,2.9389,2.9451,2.9503,2.9527,2.9605,2.9636,2.9699,2.9776,2.9864,2.9922,3.0009,3.0138,3.0161,3.0192,3.0201,3.0208,3.022,3.0292,3.0307,3.0145,3.0145,3.0145,0,0,2.9116,2.9181,2.9231,2.9355,2.9414,2.95,2.9477,2.9569,2.9633,2.9651,2.9767,2.9815,2.9905,3.0029,3.0088,3.0073,3.0269,3.0218,3.0223,3.0231,3.0301,3.0316,3.033,3.0151,3.015,3.0149,0,0,2.9217,2.9275,2.9366,2.9425,2.9513,2.9554,2.9576,2.9668,2.97,2.9817,2.9831,2.991,3.0061,3.0124,3.0176,3.03,3.0308,3.0327,3.0375,3.0445,3.0457,3.0469,3.0513,3.0529,3.0338,3.0338,3.0338,0,2.9247,2.9374,2.9413,2.9503,2.9558,2.9575,2.9668,2.9724,2.9837,2.9875,2.9857,3.0047,3.0109,3.0248,3.0278,3.0319,3.0347,3.0316,3.0452,3.0464,3.0475,3.0518,3.0535,3.034,3.034,3.034,3.034,0,2.9406,2.9494,2.9558,2.9663,2.9725,2.9817,2.987,2.9929,2.9948,2.9991,3.011,3.0183,3.0285,3.032,3.034,3.0462,3.0451,3.0442,3.0409,3.0492,3.0533,3.055,3.0343,3.0342,3.0341,3.0341,0,0,2.9516,2.964,2.9663,2.9711,2.9809,2.9879,2.9972,3.0069,3.0118,3.0195,3.0275,3.0402,3.0394,3.0453,3.0481,3.0541,3.0635,3.0525,3.0528,3.0543,3.0775,3.0781,3.0799,3.0641,3.0644,3.0647,3.0767,0,2.9629,2.9792,2.9828,2.997,3.0052,3.0069,3.015,3.022,3.0263,3.034,3.0388,3.0478,3.046,3.0496,3.0557,3.0611,3.0682,3.0603,3.0717,3.072,3.0694,3.0821,3.0828,3.0938,3.0784,3.0787,3.0789,0,2.9782,2.986,3.0009,3.0095,3.0131,3.0203,3.0295,3.0368,3.0448,3.0475,3.054,3.0561,3.0659,3.0621,3.0759,3.0703,3.0752,3.0786,3.0791,3.0804,3.076,3.0837,3.0975,3.0991,3.0814,3.0812,3.081,0,2.9847,2.999,3.0097,3.0137,3.0241,3.0291,3.0337,3.0414,3.047,3.0551,3.0587,3.0679,3.073,3.0801,3.0847,3.0815,3.0981,3.0946,3.1007,3.1006,3.1042,3.1039,3.1189,3.1073,3.1073,3.1072,3.1072,0,2.9969,3.006,3.0127,3.0193,3.0295,3.0337,3.0437,3.0484,3.0552,3.0628,3.065,3.0721,3.0777,3.0857,3.0894,3.1002,3.1025,3.1051,3.1059,3.1049,3.1046,3.1082,3.1076,3.1077,3.1076,3.1075,3.1074,0,3.0059,3.0107,3.0225,3.0313,3.0337,3.0409,3.0485,3.055,3.0593,3.0689,3.0715,3.0783,3.0878,3.093,3.105,3.1075,3.1196,3.1201,3.1168,3.1172,3.123,3.1223,3.1409,3.1436,3.1301,3.1302,3.1303,0,3.0134,3.0203,3.0298,3.0349,3.0395,3.0478,3.0535,3.0579,3.0637,3.0733,3.0787,3.0883,3.0962,3.1113,3.1175,3.1267,3.1274,3.1333,3.1288,3.1275,3.1275,3.1271,3.1278,3.1341,3.1342,3.1343,3.1344,0,3.0261,3.0281,3.036,3.0448,3.0514,3.0585,3.0656,3.0698,3.0754,3.0819,3.0915,3.0976,3.1097,3.1193,3.1289,3.1339,3.1352,3.1357,3.1376,3.1366,3.1344,3.1357,3.1189,3.1353,3.1352,3.1351,3.1351,3.135,3.0346,3.0408,3.0484,3.0571,3.0629,3.0695,3.076,3.081,3.089,3.0991,3.1013,3.1114,3.1193,3.1324,3.1376,3.1457,3.1446,3.1474,3.1481,3.1487,3.1489,3.133,3.1475,3.1475,3.1475,3.1475,3.1475,0,3.0475,3.0524,3.0603,3.0701,3.077,3.0773,3.0852,3.091,3.0998,3.1069,3.1146,3.1257,3.1349,3.1417,3.1511,3.1564,3.1572,3.1587,3.1584,3.1595,3.1494,3.1468,3.1579,3.1579,3.1579,3.1579,3.1579,3.1579,3.055,3.0655,3.0684,3.0818,3.0868,3.0966,3.101,3.1072,3.1128,3.125,3.1326,3.1369,3.1439,3.1539,3.1624,3.1642,3.1676,3.1691,3.171,3.1614,3.1602,3.1592,3.1568,3.1698,3.1698,3.1805,3.1806,3.1806]}]]